Mount Sterling, KY

11:02 PM EST on February 12, 2016 (GMT -0500)
Mount Sterling-Montgomery County

Weather History for KIOB - March, 2013

Change the Weather History Date:

Monday, March 18, 2013

  Actual Average Record
Temperature  
Mean Temperature 44 °F -  
Max Temperature 55 °F 58 °F 55 °F (2013)
Min Temperature 33 °F 33 °F 28 °F (2015)
Degree Days  
Heating Degree Days 21    
Moisture  
Dew Point 43 °F    
Average Humidity 95    
Maximum Humidity 100    
Minimum Humidity 81    
Precipitation  
Precipitation 0.00 in - - ()
Sea Level Pressure  
Sea Level Pressure 29.78 in    
Wind  
Wind Speed 10 mph (SSW)    
Max Wind Speed 21 mph    
Max Gust Speed 28 mph    
Visibility 8 miles    
Events Rain    
Averages and records for this station are not official NWS values.
T = Trace of Precipitation, MM = Missing Value Source: NWS Daily Summary

Daily Weather History Graph

Daily Weather History Graph

Search for Another Location

Airport or City:

Trip Planner

Search our weather history database for the weather conditions in past years. The results will help you decide how hot, cold, wet, or windy it might be!

Date:

Astronomy

Mar. 18, 2013 Rise Set
Actual Time 7:42 AM EDT 7:46 PM EDT
Civil Twilight 7:15 AM EDT 8:12 PM EDT
Nautical Twilight 6:45 AM EDT 8:43 PM EDT
Astronomical Twilight 6:14 AM EDT 9:14 PM EDT
Moon 11:46 AM EDT (3/18) 1:39 AM EDT (3/18)
Length of Visible Light 12h 56m
Length of Day
12h 04m
Waxing Crescent, 40% of the Moon is Illuminated
Mar 18
Waxing Crescent
Mar 19
First Quarter
Mar 27
Full
Apr 3
Last Quarter
Apr 10
New

Hourly Weather History & Observations

Time (EDT) Temp. Windchill Dew Point Humidity Pressure Visibility Wind Dir Wind Speed Gust Speed Precip Events Conditions
12:15 AM 33.8 °F 25.3 °F 33.8 °F 100% 29.95 in 10.0 mi ESE 11.5 mph - N/A   Overcast
12:35 AM 33.8 °F 25.8 °F 33.8 °F 100% 29.95 in 10.0 mi ESE 10.4 mph - N/A   Overcast
12:55 AM 33.8 °F 25.8 °F 33.8 °F 100% 29.93 in 10.0 mi ESE 10.4 mph - N/A   Overcast
1:15 AM 33.8 °F 26.4 °F 33.8 °F 100% 29.92 in 10.0 mi ESE 9.2 mph 16.1 mph N/A   Overcast
1:35 AM 33.8 °F 25.8 °F 33.8 °F 100% 29.91 in 10.0 mi ESE 10.4 mph - N/A   Overcast
1:55 AM 35.6 °F 28.6 °F 33.8 °F 93% 29.90 in 10.0 mi SE 9.2 mph - N/A   Overcast
2:15 AM 35.6 °F 28.0 °F 33.8 °F 93% 29.88 in 10.0 mi ESE 10.4 mph - N/A   Overcast
2:35 AM 35.6 °F 29.9 °F 33.8 °F 93% 29.88 in 10.0 mi ESE 6.9 mph - N/A   Overcast
2:55 AM 35.6 °F 28.6 °F 33.8 °F 93% 29.87 in 10.0 mi ESE 9.2 mph - N/A   Overcast
3:15 AM 35.6 °F 28.0 °F 35.6 °F 100% 29.84 in 10.0 mi ESE 10.4 mph - N/A   Overcast
3:35 AM 35.6 °F 29.9 °F 35.6 °F 100% 29.83 in 7.0 mi SE 6.9 mph - N/A   Overcast
3:55 AM 35.6 °F 30.7 °F 35.6 °F 100% 29.83 in 7.0 mi SE 5.8 mph - N/A   Overcast
4:15 AM 35.6 °F 31.7 °F 35.6 °F 100% 29.83 in 7.0 mi East 4.6 mph - N/A   Overcast
4:35 AM 35.6 °F 29.9 °F 35.6 °F 100% 29.82 in 5.0 mi SE 6.9 mph - N/A   Overcast
4:55 AM 37.4 °F 31.4 °F 37.4 °F 100% 29.79 in 5.0 mi SE 8.1 mph - N/A   Overcast
5:15 AM 37.4 °F 30.8 °F 37.4 °F 100% 29.78 in 4.0 mi SE 9.2 mph - N/A   Overcast
5:35 AM 37.4 °F 31.4 °F 37.4 °F 100% 29.76 in 4.0 mi SE 8.1 mph - N/A   Overcast
5:55 AM 37.4 °F 30.3 °F 37.4 °F 100% 29.75 in 5.0 mi SE 10.4 mph - N/A   Overcast
6:15 AM 37.4 °F 30.8 °F 37.4 °F 100% 29.72 in 5.0 mi SE 9.2 mph - N/A   Overcast
6:35 AM 37.4 °F 30.3 °F 37.4 °F 100% 29.71 in 7.0 mi SSE 10.4 mph - N/A   Overcast
6:55 AM 41.0 °F 31.6 °F 41.0 °F 100% 29.80 in 7.0 mi NW 20.7 mph 27.6 mph N/A Rain Rain
7:15 AM 41.0 °F 37.1 °F 41.0 °F 100% 29.79 in 3.0 mi West 5.8 mph 23.0 mph N/A Rain Rain
7:35 AM 41.0 °F 35.2 °F 41.0 °F 100% 29.79 in 7.0 mi NNW 9.2 mph - N/A Rain Light Rain
7:55 AM 35.6 °F 29.2 °F 35.6 °F 100% 29.83 in 4.0 mi North 8.1 mph 18.4 mph N/A Rain Rain
8:15 AM 35.6 °F 28.6 °F 35.6 °F 100% 29.78 in 2.5 mi East 9.2 mph - N/A Rain Heavy Rain
8:35 AM 35.6 °F 29.9 °F 35.6 °F 100% 29.79 in 2.5 mi SE 6.9 mph - N/A Rain Heavy Rain
8:55 AM 37.4 °F 30.3 °F 37.4 °F 100% 29.79 in 3.0 mi SSE 10.4 mph - N/A Rain Heavy Rain
9:15 AM 37.4 °F 30.3 °F 37.4 °F 100% 29.79 in 2.0 mi SSE 10.4 mph - N/A Rain Rain
9:35 AM 39.2 °F 34.2 °F 39.2 °F 100% 29.78 in 3.0 mi South 6.9 mph - N/A Rain Heavy Rain
9:55 AM 41.0 °F 35.2 °F 41.0 °F 100% 29.77 in 4.0 mi South 9.2 mph - N/A Rain Heavy Rain
10:15 AM 42.8 °F 36.6 °F 42.8 °F 100% 29.75 in 4.0 mi South 11.5 mph - N/A Rain Heavy Rain
10:35 AM 42.8 °F 37.0 °F 42.8 °F 100% 29.75 in 4.0 mi South 10.4 mph - N/A Rain Heavy Rain
10:55 AM 46.4 °F 41.5 °F 46.4 °F 100% 29.75 in 3.0 mi SW 10.4 mph 17.3 mph N/A Rain Heavy Rain
11:15 AM 44.6 °F 38.4 °F 44.6 °F 100% 29.76 in 4.0 mi SW 12.7 mph - N/A Rain Rain
11:35 AM 46.4 °F 39.8 °F 46.4 °F 100% 29.76 in 5.0 mi SSW 16.1 mph 19.6 mph N/A Rain Heavy Rain
11:55 AM 46.4 °F 40.7 °F 46.4 °F 100% 29.75 in 4.0 mi South 12.7 mph 18.4 mph N/A Rain Heavy Rain
12:15 PM 46.4 °F 40.7 °F 46.4 °F 100% 29.77 in 7.0 mi SSW 12.7 mph - N/A Rain Rain
12:35 PM 48.2 °F - 46.4 °F 93% 29.78 in 5.0 mi SW 12.7 mph - N/A Rain Rain
12:55 PM 46.4 °F 40.1 °F 46.4 °F 100% 29.78 in 5.0 mi SSW 15.0 mph 20.7 mph N/A Rain Rain
1:15 PM 48.2 °F - 48.2 °F 100% 29.73 in 5.0 mi South 17.3 mph - N/A Rain Light Rain
1:35 PM 50.0 °F - 50.0 °F 100% 29.72 in 10.0 mi SSW 9.2 mph 20.7 mph N/A Rain Light Rain
1:55 PM 50.0 °F - 50.0 °F 100% 29.72 in 10.0 mi South 15.0 mph - N/A   Overcast
2:15 PM 51.8 °F - 50.0 °F 94% 29.70 in 10.0 mi SSW 9.2 mph - N/A   Scattered Clouds
2:35 PM 51.8 °F - 50.0 °F 94% 29.70 in 10.0 mi SW 9.2 mph 16.1 mph N/A   Clear
2:55 PM 53.6 °F - 50.0 °F 88% 29.69 in 10.0 mi SW 9.2 mph - N/A   Clear
3:15 PM 53.6 °F - 51.8 °F 94% 29.68 in 10.0 mi SW 9.2 mph 19.6 mph N/A   Scattered Clouds
3:35 PM 53.6 °F - 51.8 °F 94% 29.68 in 10.0 mi SW 10.4 mph - N/A   Scattered Clouds
3:55 PM 53.6 °F - 51.8 °F 94% 29.68 in 10.0 mi SW 8.1 mph 16.1 mph N/A   Overcast
4:15 PM 53.6 °F - 51.8 °F 94% 29.69 in 10.0 mi WSW 9.2 mph - N/A   Overcast
4:35 PM 53.6 °F - 51.8 °F 94% 29.68 in 10.0 mi SW 9.2 mph - N/A   Overcast
4:55 PM 53.6 °F - 51.8 °F 94% 29.68 in 10.0 mi SW 8.1 mph - N/A   Overcast
5:15 PM 53.6 °F - 51.8 °F 94% 29.69 in 10.0 mi WSW 10.4 mph 16.1 mph N/A   Overcast
5:35 PM 55.4 °F - 51.8 °F 88% 29.70 in 10.0 mi SW 13.8 mph 18.4 mph N/A   Overcast
5:55 PM 55.4 °F - 51.8 °F 88% 29.70 in 10.0 mi WSW 15.0 mph 19.6 mph N/A   Overcast
6:15 PM 55.4 °F - 51.8 °F 88% 29.71 in 10.0 mi WSW 12.7 mph 17.3 mph N/A   Overcast
6:35 PM 55.4 °F - 51.8 °F 88% 29.71 in 10.0 mi WSW 10.4 mph - N/A   Overcast
6:55 PM 55.4 °F - 51.8 °F 88% 29.72 in 10.0 mi West 8.1 mph 16.1 mph N/A   Overcast
7:15 PM 53.6 °F - 50.0 °F 88% 29.74 in 10.0 mi WNW 20.7 mph 26.5 mph N/A   Overcast
7:35 PM 51.8 °F - 48.2 °F 88% 29.75 in 10.0 mi WNW 11.5 mph 19.6 mph N/A   Overcast
8:15 PM 51.8 °F - 46.4 °F 82% 29.76 in 10.0 mi WNW 9.2 mph - N/A   Overcast
8:35 PM 50.0 °F - 46.4 °F 87% 29.77 in 10.0 mi WNW 12.7 mph 17.3 mph N/A   Overcast
8:55 PM 50.0 °F - 46.4 °F 87% 29.78 in 10.0 mi WNW 11.5 mph 20.7 mph N/A   Overcast
9:15 PM 50.0 °F - 46.4 °F 87% 29.78 in 10.0 mi NW 13.8 mph 21.9 mph N/A   Overcast
9:35 PM 50.0 °F - 44.6 °F 82% 29.80 in 10.0 mi WNW 11.5 mph 20.7 mph N/A   Overcast
9:55 PM 48.2 °F - 44.6 °F 87% 29.80 in 10.0 mi NW 11.5 mph 19.6 mph N/A   Overcast
10:15 PM 46.4 °F 39.8 °F 42.8 °F 87% 29.81 in 10.0 mi NW 16.1 mph 24.2 mph N/A   Overcast
10:35 PM 46.4 °F 40.4 °F 42.8 °F 87% 29.82 in 10.0 mi NW 13.8 mph 25.3 mph N/A   Overcast
10:55 PM 44.6 °F 38.1 °F 42.8 °F 93% 29.83 in 10.0 mi NW 13.8 mph 23.0 mph N/A   Overcast
11:15 PM 44.6 °F 37.8 °F 39.2 °F 81% 29.85 in 10.0 mi NW 15.0 mph 25.3 mph N/A   Overcast
11:55 PM 42.8 °F 35.8 °F 37.4 °F 81% 29.87 in 10.0 mi NW 13.8 mph 17.3 mph N/A   Overcast